Dewpoint
49 50 50 50 50 50 49 46 45 44 45 45 44 44 44 44 43 43 41 40 39 40 39 40 40 40 40 39 39 41 41 42 43 43 43 48 50 50 50 49 48 45 42
48 49 49 50 50 49 48 45 45 44 45 45 44 45 46 46 45 43 41 41 40 41 38 39 39 39 39 39 39 41 41 42 43 41 42 38 42 45 45 44 45 42 41
45 42 44 48 50 49 47 45 45 44 45 45 46 46 48 46 44 42 42 40 40 41 41 39 39 39 39 39 38 40 40 41 41 41 40 37 36 38 42 42 42 40 39
37 40 43 46 49 49 47 46 45 45 45 46 46 45 45 44 44 43 42 41 39 40 40 40 39 38 39 38 38 39 39 39 38 40 39 39 39 37 36 39 38 37 35
32 38 44 46 48 48 46 46 46 45 45 45 44 44 41 40 42 41 40 40 39 39 40 40 39 37 39 38 37 37 37 38 36 36 37 35 36 38 38 34 33 35 35
36 40 44 46 47 48 47 46 45 43 42 42 40 40 39 39 40 39 39 40 41 41 40 39 39 37 36 37 37 36 36 36 35 36 35 33 32 32 32 31 32 32 34
37 42 44 44 45 46 47 46 44 42 41 41 40 39 39 39 38 39 39 38 39 39 40 39 38 37 35 35 35 34 34 34 33 35 35 34 33 33 33 33 33 33 33
40 42 43 44 44 45 45 43 43 42 40 40 40 39 39 40 39 38 39 39 39 39 39 39 38 35 32 32 32 33 33 32 32 32 34 35 34 33 33 34 33 32 32
39 41 42 43 43 44 44 42 42 42 40 40 41 39 39 38 38 38 39 39 39 38 38 38 37 34 30 29 29 30 30 30 30 32 33 33 34 33 33 33 34 34 31
40 41 41 42 43 44 44 44 43 41 41 40 39 39 39 38 38 38 38 38 38 38 38 38 37 33 29 28 28 30 30 30 32 32 31 32 32 32 32 33 33 34 33
36 35 34 35 37 39 41 41 41 40 40 39 38 38 38 37 37 37 37 37 37 37 37 35 33 30 28 26 25 26 27 27 28 29 30 31 31 32 31 31 32 32 33
33 32 33 33 35 36 37 37 38 38 38 37 37 37 37 36 34 31 30 29 28 29 29 29 28 27 28 28 29 30 31 32 32 32 32 32 30 31 31 30 29 30 30
31 31 31 31 32 33 35 35 35 35 35 35 33 32 32 31 31 30 29 28 27 26 27 27 27 27 27 27 28 28 28 28 28 29 30 30 30 30 30 30 29 30 28
30 30 30 31 31 31 31 32 32 32 31 28 24 20 17 17 16 16 16 16 15 15 15 15 15 17 17 18 21 22 24 25 25 27 28 30 31 30 30 29 30 28 29
30 30 30 29 27 24 21 16 14 14 15 17 18 17 17 16 16 17 17 16 16 16 15 14 15 15 15 14 15 20 23 24 24 25 25 25 29 35 34 29 29 29 28
30 28 22 18 14 13 12 12 13 13 14 14 15 15 15 16 17 18 19 19 19 19 18 18 19 22 18 28 32 30 23 22 22 23 23 22 28 30 35 36 36 34 30
27 23 19 16 14 11 10 11 12 12 13 13 14 15 16 18 18 18 18 19 19 20 20 20 20 19 20 30 33 33 25 22 22 23 23 22 19 26 22 28 33 33 34
26 23 22 16 12 11 11 10 11 12 14 15 15 17 19 19 19 19 19 19 19 18 18 18 19 19 20 31 32 33 25 23 21 23 23 23 21 21 23 22 23 23 24
25 25 24 17 13 14 13 11 11 12 14 16 17 18 18 17 17 17 17 17 16 16 16 15 16 16 17 28 31 29 20 18 18 20 21 21 19 24 29 24 25 24 24
28 26 20 16 12 12 13 13 13 14 15 18 17 17 18 17 16 16 15 16 17 17 18 18 18 22 18 25 26 27 20 19 18 19 20 26 24 28 29 25 25 25 26
28 24 21 15 13 15 16 16 16 15 16 17 17 18 18 18 17 17 18 18 19 19 19 18 18 18 19 19 26 27 22 24 26 29 24 24 29 29 30 31 28 29 30
26 21 15 15 17 17 15 14 12 15 16 18 18 17 16 15 16 19 21 21 20 18 18 17 18 19 19 25 27 29 29 28 25 29 33 33 35 34 34 33 33 32 31
21 21 19 19 18 15 14 13 14 16 16 16 15 15 15 16 17 19 20 20 19 18 17 18 20 22 23 25 29 30 30 32 33 34 35 35 32 32 31 31 31 31 29
18 17 14 11 10 11 13 14 15 16 15 15 16 17 17 18 18 19 19 20 19 19 19 21 23 23 24 25 26 28 32 33 33 34 32 33 32 31 29 29 30 30 30
17 14 12 12 13 14 14 15 15 16 16 17 17 18 18 19 19 19 19 19 19 21 21 23 24 25 25 25 28 27 27 28 27 27 26 26 26 25 26 26 27 29 28
14 13 14 15 16 16 15 15 16 17 18 18 19 19 19 19 19 19 18 23 24 26 26 27 25 24 27 28 29 29 28 28 28 25 24 24 24 25 25 26 25 25 26
Lifted_Index
1 1 2 3 3 4 5 6 6 7 8 9 11 11 11 11 11 12 13 14 14 14 14 14 14 14 14 13 13 13 12 13 13 12 11 10 8 8 8 8 9 10 11
1 2 2 3 4 4 5 6 6 7 8 9 11 11 11 11 11 12 13 14 14 14 14 14 14 14 14 13 13 13 12 13 13 12 11 10 9 9 9 9 10 10 11
2 2 3 4 4 5 6 6 7 7 8 10 11 11 11 11 11 12 13 14 14 14 14 14 14 14 13 13 13 13 13 12 13 13 12 11 10 10 10 11 11 11 12
4 4 5 5 6 6 6 7 7 7 9 10 11 11 11 11 11 12 13 14 14 14 14 14 14 14 13 13 13 13 13 12 12 12 12 12 12 11 11 11 11 12 12
6 6 6 7 6 7 7 7 7 8 9 10 11 11 11 11 12 12 13 13 14 14 14 14 14 13 13 13 13 13 13 12 12 12 12 12 12 11 11 10 11 11 12
7 8 7 7 7 7 8 8 8 9 10 10 11 11 12 12 12 13 13 13 13 13 13 13 13 13 13 13 13 13 13 12 12 12 12 11 11 11 11 10 10 10 10
8 8 8 8 8 8 8 8 9 9 10 10 11 12 12 12 13 13 13 13 13 13 13 13 13 13 14 14 14 14 13 13 12 12 12 11 11 11 11 10 10 10 10
8 8 8 8 9 9 9 9 9 10 10 10 11 12 12 13 12 12 12 12 13 13 13 13 13 13 13 14 14 14 13 13 12 12 11 11 11 11 10 10 10 10 9
8 9 9 9 9 9 9 9 9 10 10 11 11 12 12 12 12 12 12 12 12 13 13 13 13 13 13 13 13 13 13 13 12 12 11 11 11 10 10 10 10 10 10
8 8 9 9 9 9 9 9 9 10 10 11 11 12 12 12 12 12 12 12 12 12 12 12 13 13 13 13 13 12 12 12 12 12 11 11 11 11 10 10 10 10 10
8 8 9 9 9 9 9 9 10 10 10 11 11 11 11 11 11 11 11 12 12 12 12 12 12 12 12 12 12 12 11 11 11 11 11 11 11 11 11 11 11 11 12
8 8 8 8 8 8 9 9 10 10 10 11 11 11 11 11 11 11 11 12 12 12 12 12 12 12 12 12 12 12 12 12 12 12 12 12 12 12 12 12 12 12 12
8 8 8 8 8 9 9 10 10 10 11 11 11 11 11 11 12 12 13 13 13 14 14 14 14 14 14 14 14 14 14 14 14 14 13 13 13 12 12 12 12 13 13
8 8 8 8 9 9 10 11 11 12 12 12 12 12 13 13 14 15 16 16 16 16 16 16 16 16 16 16 16 16 16 16 15 15 15 14 14 13 12 12 12 12 12
8 8 8 9 9 10 11 11 12 13 13 13 13 14 15 16 17 17 17 17 17 17 17 16 16 16 16 16 16 16 16 16 16 16 15 15 14 13 12 11 11 10 10
9 9 9 9 10 11 11 12 13 13 14 14 15 16 17 18 18 17 17 16 16 16 16 16 16 16 16 15 15 15 15 16 16 16 15 15 14 12 11 9 8 8 8
10 10 10 10 11 11 12 13 13 14 14 15 16 17 18 18 17 17 16 16 16 16 16 16 16 16 16 15 14 14 14 15 15 14 14 13 12 10 9 8 7 6 6
10 10 10 11 12 12 13 13 14 14 15 16 17 17 17 17 16 16 16 16 16 16 16 16 16 16 16 15 14 14 14 14 13 12 11 10 9 9 8 7 7 6 6
10 10 11 12 12 12 13 13 14 15 16 17 17 17 17 16 16 16 16 16 16 16 16 16 16 16 16 15 14 13 13 12 12 11 10 9 8 7 6 6 6 6 6
10 11 11 12 12 12 12 13 14 16 17 17 16 16 16 16 16 16 16 16 16 16 16 16 16 16 16 15 13 12 11 11 10 10 9 8 7 6 5 4 5 5 5
10 11 11 11 11 12 13 14 15 16 16 16 16 16 16 16 16 16 16 15 15 15 15 16 16 15 14 13 12 11 10 10 9 9 8 7 6 5 4 3 4 4 4
10 10 11 11 12 13 15 16 16 16 16 16 15 15 15 16 15 15 15 15 15 15 15 15 15 14 13 12 11 10 10 9 8 8 7 6 5 4 3 3 3 4 4
10 10 10 11 12 14 16 16 16 16 15 15 15 15 15 15 15 15 15 15 15 15 14 14 13 12 11 10 10 9 9 8 7 6 5 4 3 3 3 3 4 4 4
10 10 11 12 13 15 16 16 15 15 15 15 15 15 15 15 15 15 15 15 14 13 13 12 11 11 10 9 9 8 8 7 6 5 5 4 3 3 3 4 4 4 4
10 11 12 13 14 15 15 15 15 15 15 15 15 15 15 15 15 15 15 14 13 12 11 10 10 10 9 8 8 7 7 6 6 5 5 5 4 4 4 4 4 4 4
11 12 13 14 15 15 15 15 15 15 15 15 15 15 14 15 15 15 14 14 12 11 10 10 9 9 8 8 7 7 6 6 5 5 5 5 5 5 5 5 5 5 5